N1DNE Weather Reports


Display with metric or nautical units.
time (UTC)temp
F
wind
direction
speed
MPH
gust
MPH
rain 1hr
in
rain 24hr
in
rain mn
in
humidity
%
barometer
mb
20260509124430 45 355 0.0 1.0 0.01 0.05 0.05 93 1012.1
20260509123922 45 355 0.0 2.0 0.01 0.05 0.05 93 1012.1
20260509122429 45 355 1.0 3.0 0.01 0.05 0.05 93 1012.1
20260509121427 44 355 0.0 2.0 0.00 0.04 0.04 93 1012.2
20260509120428 44 355 0.0 2.0 0.00 0.04 0.04 93 1012.5
20260509115426 44 355 1.0 3.0 0.00 0.04 0.04 93 1012.3
20260509114426 44 348 0.0 2.0 0.00 0.04 0.04 94 1012.4
20260509113910 44 348 0.0 2.0 0.00 0.04 0.04 94 1012.3
20260509112427 44 348 0.0 3.0 0.00 0.04 0.04 94 1012.2
20260509111428 44 344 0.0 0.0 0.00 0.04 0.04 94 1012.4
20260509110428 44 344 0.0 0.0 0.00 0.04 0.04 93 1012.5
20260509105428 44 344 0.0 1.0 0.00 0.04 0.04 93 1012.5
20260509104424 44 344 0.0 1.0 0.00 0.04 0.04 93 1012.3
20260509103902 44 344 0.0 1.0 0.00 0.04 0.04 93 1012.3
20260509102422 44 344 0.0 1.0 0.00 0.04 0.04 93 1012.3
20260509101421 44 344 0.0 2.0 0.00 0.04 0.04 93 1012.2
20260509100822 44 343 0.0 3.0 0.00 0.04 0.04 92 1012.3
20260509100456 44 344 0.0 3.0 0.00 0.04 0.04 93 1012.2
20260509095347 44 340 0.0 1.0 0.01 0.04 0.04 92 1012.2
20260509093419 44 340 0.0 0.0 0.02 0.04 0.04 92 1012.1
20260509092414 44 340 0.0 0.0 0.04 0.04 0.04 91 1011.9
20260509091413 44 340 0.0 1.0 0.04 0.04 0.04 91 1011.7
20260509090412 44 340 0.0 0.0 0.04 0.04 0.04 90 1011.7
20260509085414 44 340 0.0 0.0 0.04 0.04 0.04 90 1011.6
20260509084856 44 340 0.0 0.0 0.03 0.03 0.03 89 1011.7
20260509083412 44 340 0.0 0.0 0.02 0.02 0.02 89 1011.8
20260509082412 45 340 0.0 0.0 0.00 0.00 0.01 87 1011.7
20260509081413 44 340 0.0 0.0 0.00 0.00 0.00 86 1011.6
20260509080415 44 340 0.0 0.0 0.00 0.00 0.00 86 1011.4
20260509075410 44 340 0.0 0.0 0.00 0.00 0.00 86 1011.4
20260509074859 44 340 0.0 0.0 0.00 0.00 0.00 86 1011.3
20260509073411 44 340 0.0 0.0 0.00 0.00 0.00 86 1011.2
20260509072411 44 340 0.0 0.0 0.00 0.00 0.00 85 1011.1
20260509071410 44 340 0.0 0.0 0.00 0.00 0.00 86 1011.3
20260509070408 44 340 0.0 0.0 0.00 0.00 0.00 86 1011.4
20260509065408 44 340 0.0 0.0 0.00 0.00 0.00 86 1011.4
20260509064854 44 340 0.0 0.0 0.00 0.00 0.00 86 1011.5
20260509063408 44 340 0.0 0.0 0.00 0.00 0.00 86 1011.7
20260509062409 44 340 0.0 0.0 0.00 0.00 0.00 87 1011.7
20260509061408 44 340 0.0 0.0 0.00 0.00 0.00 86 1011.8
20260509060409 44 340 0.0 0.0 0.00 0.00 0.00 86 1011.7
20260509055408 43 340 0.0 0.0 0.00 0.00 0.00 87 1012.0
20260509055323 43 340 0.0 0.0 0.00 0.00 0.00 86 1012.1
20260509053409 43 340 0.0 0.0 0.00 0.00 0.00 86 1012.1
20260509052411 43 340 0.0 0.0 0.00 0.00 0.00 85 1012.3
20260509051409 44 340 0.0 0.0 0.00 0.00 0.00 85 1012.2
20260509050404 44 340 0.0 0.0 0.00 0.00 0.00 84 1012.1
20260509045842 44 340 0.0 0.0 0.00 0.00 0.00 82 1012.0
20260509044843 44 340 0.0 0.0 0.00 0.00 0.00 81 1012.3
20260509043403 44 340 0.0 0.0 0.00 0.00 0.00 81 1012.1
20260509042405 44 340 0.0 0.0 0.00 0.00 0.00 81 1012.2
20260509041839 44 340 0.0 0.0 0.00 0.00 0.00 81 1012.1
20260509040402 43 340 0.0 0.0 0.00 0.00 0.00 81 1011.9
20260509035402 43 340 0.0 0.0 0.00 0.00 0.00 80 1011.9
20260509034400 43 340 0.0 0.0 0.00 0.00 0.00 80 1011.7
20260509033401 43 340 0.0 0.0 0.00 0.00 0.00 80 1011.6
20260509032401 44 340 0.0 0.0 0.00 0.00 0.00 80 1011.7
20260509031400 44 340 0.0 0.0 0.00 0.00 0.00 79 1011.7
20260509030400 44 340 0.0 1.0 0.00 0.00 0.00 78 1011.7
20260509025402 44 340 0.0 2.0 0.00 0.00 0.00 78 1011.4
20260509024401 44 340 0.0 2.0 0.00 0.00 0.00 77 1011.4
20260509023832 44 340 0.0 2.0 0.00 0.00 0.00 77 1011.5
20260509022838 45 340 0.0 1.0 0.00 0.00 0.00 76 1011.5
20260509021355 45 340 0.0 1.0 0.00 0.00 0.00 76 1011.5
20260509020355 46 340 0.0 0.0 0.00 0.00 0.00 75 1011.5
20260509015354 46 340 1.0 2.0 0.00 0.00 0.00 74 1011.3
20260509014355 47 340 1.0 2.0 0.00 0.00 0.00 72 1011.2
20260509014326 47 340 1.0 2.0 0.00 0.00 0.00 72 1011.2
20260509012847 48 340 0.0 1.0 0.00 0.00 0.00 71 1010.9
20260509011354 49 340 0.0 1.0 0.00 0.00 0.00 69 1010.8
20260509010353 49 340 1.0 2.0 0.00 0.00 0.00 66 1010.5
20260509005842 50 340 1.0 2.0 0.00 0.00 0.00 64 1010.3
20260509004349 51 340 0.0 1.0 0.00 0.00 0.00 63 1010.2
20260509003349 51 340 0.0 1.0 0.00 0.00 0.00 62 1010.1
20260509002349 52 340 1.0 2.0 0.00 0.00 0.00 59 1010.0
20260509001349 53 340 1.0 2.0 0.00 0.00 0.00 56 1009.9
20260509000833 53 340 0.0 1.0 0.00 0.00 0.00 56 1009.9
20260508235348 54 340 0.0 2.0 0.00 0.00 0.00 53 1009.8
20260508234347 55 340 0.0 1.0 0.00 0.00 0.00 53 1009.4
20260508233834 55 340 1.0 2.0 0.00 0.00 0.00 54 1009.2
20260508232349 55 346 0.0 2.0 0.00 0.00 0.00 54 1009.2
20260508231347 55 346 0.0 2.0 0.00 0.00 0.00 55 1009.2
20260508230349 56 346 1.0 3.0 0.00 0.00 0.00 55 1009.0
20260508225346 56 348 1.0 4.0 0.00 0.00 0.00 53 1008.8
20260508224346 56 348 0.0 2.0 0.00 0.00 0.00 54 1008.9
20260508223345 56 343 1.0 2.0 0.00 0.00 0.00 56 1008.9
20260508222345 56 344 1.0 4.0 0.00 0.00 0.00 52 1008.9
20260508221346 57 48 2.0 9.0 0.00 0.00 0.00 52 1008.9
20260508220347 57 260 2.0 8.0 0.00 0.00 0.00 52 1009.0
20260508215341 57 306 1.0 3.0 0.00 0.00 0.00 53 1008.9
20260508214834 57 300 1.0 3.0 0.00 0.00 0.00 51 1008.7
20260508213343 57 317 2.0 5.0 0.00 0.00 0.00 53 1008.8
20260508212343 57 171 2.0 6.0 0.00 0.00 0.00 53 1008.8
20260508211342 57 170 1.0 4.0 0.00 0.00 0.00 56 1008.7
20260508210817 57 231 2.0 7.0 0.00 0.00 0.00 58 1008.6
20260508205342 57 259 1.0 4.0 0.00 0.00 0.00 56 1008.6
20260508204342 58 259 1.0 6.0 0.00 0.00 0.00 55 1008.5
20260508203342 58 227 1.0 10.0 0.00 0.00 0.00 57 1008.5
20260508202342 58 36 2.0 4.0 0.00 0.00 0.00 57 1008.4
20260508201827 57 10 2.0 5.0 0.00 0.00 0.00 58 1008.6
20260508200344 57 269 1.0 4.0 0.00 0.00 0.00 58 1008.6
20260508195345 57 269 1.0 8.0 0.00 0.00 0.00 58 1008.6
20260508194342 57 249 2.0 8.0 0.00 0.00 0.00 60 1008.7
20260508193339 57 267 2.0 4.0 0.00 0.00 0.00 60 1008.8
20260508192342 57 22 2.0 6.0 0.00 0.00 0.00 59 1008.7
20260508191342 57 263 2.0 7.0 0.00 0.00 0.00 58 1008.8
20260508190337 58 262 2.0 5.0 0.00 0.00 0.00 59 1008.8
20260508190306 58 267 1.0 5.0 0.00 0.00 0.00 58 1008.6
20260508184338 58 190 2.0 8.0 0.00 0.00 0.00 55 1008.6
20260508183339 58 188 2.0 8.0 0.00 0.00 0.00 58 1008.7
20260508182335 57 181 1.0 9.0 0.00 0.00 0.00 60 1008.6
20260508181337 56 306 2.0 14.0 0.00 0.00 0.00 61 1008.6
20260508180332 55 234 2.0 14.0 0.00 0.00 0.00 64 1008.9
20260508175331 54 271 2.0 9.0 0.00 0.00 0.00 66 1009.1
20260508174329 54 233 3.0 11.0 0.00 0.00 0.00 66 1009.2
20260508173331 55 194 2.0 10.0 0.00 0.00 0.00 63 1009.2
20260508172331 56 238 2.0 4.0 0.00 0.00 0.00 59 1009.0
20260508171816 57 259 2.0 10.0 0.00 0.00 0.00 56 1008.7
20260508170330 58 258 2.0 10.0 0.00 0.00 0.00 51 1008.2
20260508165330 58 209 2.0 11.0 0.00 0.00 0.00 49 1008.1
20260508164329 58 192 1.0 2.0 0.00 0.00 0.00 52 1007.9
20260508163816 58 193 2.0 5.0 0.00 0.00 0.00 51 1008.1
20260508162326 58 221 3.0 7.0 0.00 0.00 0.00 52 1008.3
20260508161801 58 254 2.0 6.0 0.00 0.00 0.00 49 1008.4
20260508160323 58 192 2.0 8.0 0.00 0.00 0.00 48 1008.5
20260508155325 57 213 2.0 5.0 0.00 0.00 0.00 51 1008.5
20260508154325 57 191 1.0 4.0 0.00 0.00 0.00 50 1008.7
20260508153326 57 251 2.0 7.0 0.00 0.00 0.00 50 1008.9
20260508152323 57 192 1.0 5.0 0.00 0.00 0.00 53 1008.8
20260508151324 56 184 1.0 5.0 0.00 0.00 0.00 52 1008.7
20260508150318 56 348 1.0 3.0 0.00 0.00 0.00 56 1008.9
20260508145318 56 221 1.0 6.0 0.00 0.00 0.00 59 1008.9
20260508144317 55 220 2.0 7.0 0.00 0.00 0.00 53 1009.0
20260508143316 55 213 2.0 6.0 0.00 0.00 0.00 56 1008.9
20260508142317 54 174 2.0 6.0 0.00 0.00 0.00 55 1009.0
20260508141317 54 173 2.0 7.0 0.00 0.00 0.00 54 1009.0
20260508140316 54 191 1.0 4.0 0.00 0.00 0.00 56 1009.1
20260508135318 54 194 1.0 5.0 0.00 0.00 0.00 56 1009.2
20260508134320 55 28 1.0 3.0 0.00 0.00 0.00 55 1009.4
20260508134245 54 37 1.0 3.0 0.00 0.00 0.00 57 1009.5
20260508132316 54 232 1.0 4.0 0.00 0.00 0.00 58 1009.5
20260508131315 53 190 1.0 6.0 0.00 0.00 0.00 60 1009.7
20260508130317 53 175 0.0 3.0 0.00 0.00 0.00 60 1009.7
20260508125315 53 175 0.0 3.0 0.00 0.00 0.00 61 1009.7